Flag for Switzerland Weather past 2 weeks in Onex, Geneva, Switzerland

36 °F

Broken clouds.

Feels Like: 33 °F
Forecast: 30 / 42 °F
Wind: 3 mph from Northwest

Location: Geneva Cointrin Airport

Current Time: Nov 28, 2015 at 10:40:33 AM

Latest Report: Nov 28, 2015 at 10:20 AM

Visibility: N/A

Pressure: 30.09 "Hg

Humidity: 81%

Dew point: 30 °F

Location of OnexLocation

Historic Weather in Onex — Graph


Onex temperature yesterday

Maximum temperature yesterday: 41 °F (at 2:50 PM)
Minimum temperature yesterday: 30 °F (at 11:20 PM)
Average temperature yesterday: 38 °F

Past Weeks' High & Low Weather Summary

High64 °F (Nov 16, 3:50 PM)100% (Nov 14, 4:50 AM)30.51 "Hg (Nov 14, 4:50 AM)
Low25 °F (Nov 24, 7:20 AM)39% (Nov 15, 12:20 PM)29.50 "Hg (Nov 21, 12:20 PM)
Average44 °F76%30.10 "Hg
* Reported Nov 13 9:20 AM — Nov 28 9:20 AM, Onex, Weather by CustomWeather, © 2015

Note: Actual official high and low records may vary slightly from our data, if they occured in-between our weather recording intervals... More about our weather records


Onex weather history for previous 24 hours

Time TempWeatherWind HumidityBarometerVisibility
9:20 AM
Sat, Nov 28
34 °FLight snow. Partly sunny.2 mph87%30.09 "Hg4 mi
8:50 AM34 °FLight snow. Broken clouds.3 mph87%30.07 "Hg4 mi
7:20 AM34 °FLight snow. Passing clouds.3 mph81%30.01 "HgN/A
6:50 AM34 °FPassing clouds.3 mph81%30.01 "HgN/A
6:20 AM34 °FPassing clouds.2 mph81%30.01 "HgN/A
5:50 AM34 °FPassing clouds.2 mph81%30.01 "HgN/A
5:20 AM32 °FPassing clouds.1 mph87%30.01 "HgN/A
4:50 AM32 °FPassing clouds.2 mph87%30.01 "HgN/A
4:20 AM32 °FPassing clouds.3 mph87%30.01 "HgN/A
3:50 AM30 °FPassing clouds.3 mph86%30.01 "HgN/A
3:20 AM30 °FClear.2 mph86%30.01 "Hg10 mi
2:50 AM30 °FPassing clouds.1 mph86%30.01 "HgN/A
1:50 AM30 °FClear.2 mph86%30.01 "Hg10 mi
12:50 AM30 °FPassing clouds.2 mph80%30.01 "HgN/A
11:50 PM
Fri, Nov 27
30 °FPassing clouds.2 mph80%30.01 "HgN/A
11:20 PM30 °FPassing clouds.2 mph80%30.01 "HgN/A
10:50 PM32 °FPassing clouds.2 mph80%30.01 "HgN/A
9:50 PM34 °FPassing clouds.2 mph75%30.01 "HgN/A
9:20 PM36 °FPassing clouds.1 mph70%30.01 "HgN/A
8:50 PM36 °FPassing clouds.2 mph70%30.01 "HgN/A
8:20 PM36 °FPassing clouds.3 mph70%30.01 "HgN/A
7:50 PM36 °FPassing clouds.1 mph70%30.01 "HgN/A
7:20 PM36 °FPassing clouds.3 mph75%30.01 "HgN/A
6:20 PM37 °FPassing clouds.5 mph65%30.01 "HgN/A
5:50 PM37 °FPassing clouds.5 mph65%30.01 "HgN/A
5:20 PM39 °FPassing clouds.7 mph61%29.98 "HgN/A
4:50 PM39 °FPartly sunny.6 mph61%29.98 "HgN/A
4:20 PM39 °FPartly sunny.9 mph61%29.98 "HgN/A
3:50 PM39 °FPartly sunny.8 mph61%29.98 "HgN/A
3:20 PM39 °FBroken clouds.5 mph70%29.98 "HgN/A
2:50 PM41 °FBroken clouds.7 mph61%29.98 "HgN/A
2:20 PM39 °FPartly sunny.3 mph65%30.01 "HgN/A
1:50 PM39 °FPartly sunny.3 mph65%30.01 "HgN/A
1:20 PM39 °FPartly sunny.6 mph65%30.01 "HgN/A
12:50 PM39 °FScattered clouds.5 mph65%30.04 "HgN/A
12:20 PM39 °FScattered clouds.5 mph65%30.04 "HgN/A
11:50 AM39 °FPartly sunny.5 mph65%30.04 "HgN/A
11:20 AM37 °FPartly sunny.5 mph70%30.04 "HgN/A
10:50 AM39 °FBroken clouds.5 mph65%30.04 "HgN/A
10:20 AM39 °FPartly sunny.6 mph65%30.04 "HgN/A
Weather by CustomWeather, © 2015

See weather overviewHow to use our weather pages